Location: Dammartin
(48.9032°N, 1.6195°E)
Time: 03:30:34
(UTC+00:00)

MOZHAYETS 4 - Pass Details

Date: 04 December 2023
Orbit: 654 x 672 km, 98.3° (Epoch: 23 February)

Event Time Altitude Azimuth Distance (km) Brightness Sun altitude
Rises 17:31:08 0° 0° (N) 3,035 10.9 -14.6°
Reaches altitude 10° 17:34:07 10° 340° (NNW) 2,118 10.3 -15.1°
Maximum altitude 17:36:55 16° 303° (WNW) 1,735 10.4 -15.5°
Drops below altitude 10° 17:39:43 10° 265° (W) 2,111 11.6 -16.0°
Sets 17:42:41 0° 244° (WSW) 3,021 12.8 -16.4°
